sat.trackr.live / text

‹ back to catalog

STARLINK-36110

NORAD 66945 · 2025-286W

PAYLOAD ACTIVE UNKNOWN

§ Identity

Operator
Country
US
Launch date
2025-12-07
Launch site
AFWTR
Launch vehicle
Mass (kg)
RCS (m²)

Purposes: comms

External: N2YO · Heavens-Above · Gunter

§ Orbital elements

Epoch: 2026-05-25T00:01:53.927904Z

Period
93.85 min
Inclination
53.1610°
Eccentricity
0.0000611
Mean motion
15.34411753 rev/d
Perigee alt
462.3 km
Apogee alt
463.1 km
Semi-major
6,840.8 km
B*
6.9444e-4
RAAN
3.7613°
Arg perigee
60.0626°
Mean anomaly
300.0437°
Rev number
2,710

§ Raw data

STARLINK-361101 66945U 25286W   26145.00131861  .00023168  00000+0  69444-3 0  99902 66945  53.1610   3.7613 0000611  60.0626 300.0437 15.34411753 27107

JSON: /api/v1/satellites/66945 · /tle

For live sub-satellite position, see the globe view (requires WebGL).

§ Visibility from observer

Set your observer location to see the next 7 days of passes ≥ 10°. The values pass through the URL so the page stays shareable.

No JS? Fill the form by hand. The geolocation button needs JavaScript.